Starlink 34266

operational
NORAD ID: 65093 Int'l Des: 2025-167 Owner: SPXS Country: US Constellation: starlink
LEOCIRCULAR

Über Starlink 34266

Beschreibung wird geladen...

Live-Position

3D-Globus wird geladen...

Nächste Überflüge

Höhenverlauf

Altitude vs Time

uPlot chart will show altitude changes over time

Zweizeiliger Elementsatz

1 65093U 25167R 26062.13122355 -.00021053 00000-0 -70083-3 0 9996
2 65093 53.1587 57.2664 0001108 37.9341 322.1738 15.30193147 32477
Epoch: 3. März 2026 • Age: 20 hours

Aktueller Status

Höhe 493.2 km
Geschwindigkeit 7.62 km/s
Subsatellitenpunkt -49.99°S, 163.89°W
Startdatum 4. Aug. 2025
Alter 0.5 years
Typ internet

Technische Details

Klassifizierung Payload
Masse 575.00 kg
Trockenmasse 530.00 kg
Gesamtmasse 575.00 kg
Länge 0.30 m
Durchmesser 4.10 m
Spannweite 29.00 m
Form Box + pan
Hersteller SPXS
Bus-Typ Starlink V2MO
Phasenstatus In Orbit
Besitzer/Staat SPXS/US

Große Konstellationen

Loading constellations...